DateTimeUTC,F1_A11,F1_S11,BsB_S11,BsG_S11,BsR_S11,BbsB_S11,BbsG_S11,BbsR_S11,BaB_A11,BaG_A11,BaR_A11,T_S11,U_S11,P_S11,T1_A11
2020-12-30T00:00:00Z,00000380,21000600,,,,,,,,,,24.1,00.0,0640.6,30.9
2020-12-30T00:01:00Z,00000380,21000600,,,,,,,,,,24.1,00.0,0640.6,30.9
2020-12-30T00:02:00Z,00000380,21000600,,,,,,,,,,24.1,00.0,0640.6,30.9
2020-12-30T00:03:00Z,00000380,61000600,,,,,,,,,,24.1,00.0,0640.6,30.9
2020-12-30T00:04:00Z,00000380,41000600,0000.68,0000.25,0000.03,-000.12,0000.19,-000.20,0000.01,0000.09,0000.00,23.9,00.0,0641.4,30.9
2020-12-30T00:05:00Z,00000380,01000600,0000.57,0000.11,-000.00,0000.51,0000.13,0000.04,0000.04,0000.03,0000.15,23.9,00.0,0641.4,30.9
2020-12-30T00:06:00Z,00000380,01000600,-000.28,0000.04,0000.19,0000.66,-000.12,-000.15,0000.02,-000.01,-000.01,23.9,00.0,0641.4,30.9
2020-12-30T00:07:00Z,00000380,01000600,0000.65,0000.41,0000.10,0000.16,0000.43,0000.13,0000.01,0000.07,0000.09,23.9,00.0,0641.4,30.9
2020-12-30T00:08:00Z,00000380,01000600,0000.65,0000.23,0000.07,0000.04,0000.01,0000.07,-000.07,-000.05,-000.03,23.9,00.0,0641.5,30.9
2020-12-30T00:09:00Z,00000380,01000600,-001.22,-000.01,0000.05,-000.28,0000.05,0000.20,0000.00,-000.01,-000.08,23.9,00.0,0641.4,30.9
2020-12-30T00:10:00Z,00000380,01000600,0000.85,-000.04,0000.35,0000.14,-000.01,0000.17,-000.06,-000.09,-000.02,23.8,00.0,0641.4,30.9
2020-12-30T00:11:00Z,00000380,01000600,0001.02,0000.27,0000.09,-000.27,-000.21,-000.22,-000.03,0000.18,0000.13,23.8,00.0,0641.4,30.9
2020-12-30T00:12:00Z,00000380,01000600,0000.68,0000.07,-000.18,-000.28,-000.48,-000.21,0000.17,-000.07,0000.04,23.8,00.0,0641.4,30.9
2020-12-30T00:13:00Z,00000380,01000600,0000.47,0000.64,0000.36,0000.29,0000.20,-000.32,0000.08,0000.18,-000.15,23.8,00.0,0641.4,30.9
2020-12-30T00:14:00Z,00000380,01000600,0000.25,-000.06,0000.44,0000.88,0000.13,0000.16,-000.07,-000.05,0000.04,23.9,00.0,0641.4,30.9
2020-12-30T00:15:00Z,00000380,01000600,0000.37,-000.09,0000.34,-000.26,0000.06,0000.28,0000.10,-000.05,0000.11,23.9,00.0,0641.4,30.9
2020-12-30T00:16:00Z,00000380,01000600,-000.59,0000.38,-000.30,-001.09,-000.39,0000.11,0000.08,0000.01,-000.17,23.9,00.0,0641.4,30.9
2020-12-30T00:17:00Z,00000380,01000600,-000.02,0000.19,0000.65,0000.04,0000.19,0000.49,-000.07,0000.05,0000.12,23.9,00.0,0641.5,30.9
2020-12-30T00:18:00Z,00000380,01000600,0000.54,0000.03,0000.35,0000.05,-000.28,0000.25,0000.08,-000.02,-000.06,23.9,00.0,0641.5,30.9
2020-12-30T00:19:00Z,00000380,01000600,0000.19,0000.04,0000.37,-000.47,-000.02,0000.41,-000.09,-000.08,0000.13,23.9,00.0,0641.6,30.9
2020-12-30T00:20:00Z,00000380,01000600,0000.93,0000.77,0000.70,-000.42,-000.12,0000.01,0000.10,0000.17,-000.04,23.9,00.0,0641.6,30.9
2020-12-30T00:21:00Z,00000380,01000600,0000.66,-000.10,-000.30,0000.13,0000.02,-000.25,0000.08,-000.06,0000.08,23.9,00.0,0641.5,30.9
2020-12-30T00:22:00Z,00000380,01000600,0000.06,-000.26,0000.20,-000.20,-000.07,0000.40,0000.03,0000.14,0000.05,23.9,00.0,0641.6,30.9
2020-12-30T00:23:00Z,00000380,01000600,0000.50,-000.02,-000.11,-000.36,0000.05,-000.14,-000.00,0000.12,0000.02,23.9,00.0,0641.6,30.9
2020-12-30T00:24:00Z,00000380,01000600,0000.25,-000.09,-000.17,0000.36,0000.07,-000.14,-000.10,-000.18,-000.10,23.9,00.0,0641.6,30.9
2020-12-30T00:25:00Z,00000380,01000600,0000.74,-000.54,0000.36,-000.31,0000.10,0000.14,-000.03,0000.00,-000.07,23.9,00.0,0641.7,30.9
2020-12-30T00:26:00Z,00000380,01000600,0000.49,0000.28,0000.26,0000.47,-000.09,0000.05,0000.15,0000.07,-000.05,23.9,00.0,0641.8,30.9
2020-12-30T00:27:00Z,00000380,01000600,0000.43,-000.08,0000.12,0000.31,0000.27,-000.12,-000.20,-000.03,0000.03,23.9,00.0,0641.8,30.9
2020-12-30T00:28:00Z,00000380,01000600,0000.19,0000.06,0000.35,-000.39,0000.19,-000.08,0000.16,0000.03,0000.13,23.9,00.0,0641.8,30.9
2020-12-30T00:29:00Z,00000380,01000600,0000.88,0000.05,0000.30,0000.10,-000.04,0000.37,-000.06,0000.00,-000.08,23.9,00.0,0641.8,30.9
2020-12-30T00:30:00Z,00000380,01010600,-000.03,0000.17,0000.17,-000.10,-000.52,0000.21,-000.11,0000.06,0000.06,23.9,00.0,0641.7,30.9
2020-12-30T00:31:00Z,00000380,01010600,0001.15,0000.23,-000.04,0000.31,0000.24,0000.18,0000.16,-000.07,-000.01,23.9,00.0,0641.7,30.9
2020-12-30T00:32:00Z,00000380,01000600,0000.57,0000.22,-000.18,0000.58,0000.03,-000.06,-000.09,0000.04,0000.03,23.8,00.0,0641.8,30.9
2020-12-30T00:33:00Z,00000380,01000600,0001.04,0000.01,0000.28,0000.04,0000.21,-000.09,0000.07,-000.10,-000.12,23.9,00.0,0641.9,30.9
2020-12-30T00:34:00Z,00000380,01000600,-000.09,0000.41,0000.04,0000.47,-000.14,0000.29,0000.02,0000.12,0000.05,23.8,00.0,0641.9,30.9
2020-12-30T00:35:00Z,00000380,01000600,0000.42,-000.00,0000.29,-000.24,0000.08,0000.22,-000.02,0000.01,-000.02,23.8,00.0,0641.9,30.9
2020-12-30T00:36:00Z,00000380,01000600,0000.34,-000.01,0000.17,-000.14,-000.27,0000.04,0000.09,0000.00,0000.06,23.8,00.0,0641.8,30.9
2020-12-30T00:37:00Z,00000380,01000600,-000.49,0000.49,-000.10,-000.13,-000.13,0000.13,-000.03,-000.02,-000.12,23.8,00.0,0641.8,30.9
2020-12-30T00:38:00Z,00000380,01000600,0000.54,0000.04,0000.12,0000.53,-000.00,0000.40,-000.10,0000.01,0000.03,23.8,00.0,0641.8,30.9
2020-12-30T00:39:00Z,00000380,01000600,0000.56,0000.24,0000.28,-000.10,0000.07,0000.53,0000.13,0000.10,0000.03,23.8,00.0,0641.8,30.9
2020-12-30T00:40:00Z,00000380,01000600,0000.54,0000.16,0000.62,0000.73,-000.53,0000.28,0000.06,-000.13,-000.05,23.8,00.0,0641.8,30.9
2020-12-30T00:41:00Z,00000380,01000600,0000.24,0000.07,-000.35,0000.16,0000.26,0000.21,-000.07,0000.14,0000.05,23.8,00.0,0641.8,30.9
2020-12-30T00:42:00Z,00000380,01000600,-000.05,-000.18,0000.13,0000.18,0000.15,-000.21,0000.16,0000.13,0000.08,23.8,00.0,0641.8,30.9
2020-12-30T00:43:00Z,00000380,01000600,0000.38,0000.15,0000.44,-000.27,0000.09,0000.54,0000.01,0000.06,0000.13,23.8,00.0,0641.7,30.9
2020-12-30T00:44:00Z,00000380,01000600,-000.36,0000.10,-000.20,-000.38,-000.22,0000.08,-000.00,0000.02,0000.01,23.8,00.0,0641.7,30.9
2020-12-30T03:45:00Z,00000380,01000600,0000.33,-000.22,0000.21,-000.03,-000.32,0000.37,-000.12,0000.17,0000.01,23.8,00.0,0642.0,30.9
2020-12-30T03:46:00Z,00000380,01000600,0000.59,0000.65,0000.44,0000.42,-000.06,-000.08,0000.23,-000.03,0000.05,23.8,00.0,0642.0,30.9
2020-12-30T03:47:00Z,00000380,01000600,0000.59,0000.04,0000.98,0000.15,-000.09,0000.01,-000.14,0000.13,0000.02,23.8,00.0,0642.0,30.9
2020-12-30T03:48:00Z,00000380,01000600,0000.72,0000.28,0000.54,-000.49,-000.08,0000.15,0000.20,-000.10,0000.12,23.8,00.0,0642.0,30.9
2020-12-30T03:49:00Z,00000380,01000600,0000.15,0000.25,0000.90,0000.24,0000.21,-000.22,-000.08,0000.06,-000.06,23.7,00.0,0642.0,30.9
2020-12-30T03:50:00Z,00000380,01000600,0000.05,0000.53,0000.76,-000.31,-000.28,0000.09,-000.00,0000.01,0000.05,23.7,00.0,0642.0,30.9
2020-12-30T03:51:00Z,00000380,01000600,0001.16,0000.15,0000.62,0000.66,-000.28,0000.33,-000.05,-000.06,-000.07,23.7,00.0,0642.0,30.9
2020-12-30T03:52:00Z,00000380,01000600,0000.05,-000.51,0000.81,0000.15,-000.48,0000.40,-000.01,0000.12,0000.15,23.7,00.0,0642.0,30.9
2020-12-30T03:53:00Z,00000380,01000600,0000.73,-000.18,0000.67,0000.15,0000.08,0000.17,0000.12,0000.05,-000.11,23.8,00.0,0642.0,30.9
2020-12-30T03:54:00Z,00000380,01000600,0000.83,0000.41,0000.30,0000.79,0000.26,-000.05,0000.16,-000.05,0000.09,23.7,00.0,0642.0,30.9
2020-12-30T03:55:00Z,00000380,01000600,0000.64,-000.07,0000.80,0000.33,0000.02,0000.17,-000.07,0000.10,-000.09,23.7,00.0,0642.0,30.9
2020-12-30T03:56:00Z,00000380,01000600,0000.37,0000.17,0000.27,0000.59,-000.01,0000.11,-000.10,0000.03,0000.03,23.7,00.0,0642.0,30.9
2020-12-30T03:57:00Z,00000380,41000600,,,,,,,,,,23.7,00.0,0642.0,30.9
2020-12-30T03:58:00Z,00000380,61000600,,,,,,,,,,23.9,00.0,0641.1,30.9
2020-12-30T03:59:00Z,00000380,21000600,,,,,,,,,,24.0,00.0,0641.1,30.9
2020-12-30T04:00:00Z,00000380,21000600,,,,,,,,,,24.0,00.0,0641.1,30.9
2020-12-30T04:01:00Z,00000380,21000600,,,,,,,,,,24.0,00.0,0641.1,30.9
2020-12-30T04:02:00Z,00000380,21000600,,,,,,,,,,24.0,00.0,0641.1,30.9
2020-12-30T04:03:00Z,00000380,61000600,,,,,,,,,,24.0,00.0,0641.1,30.9
2020-12-30T04:04:00Z,00000380,41000600,0000.52,0000.12,-000.29,0000.20,0000.40,0000.34,-000.04,0000.03,0000.01,23.9,00.0,0641.9,30.9
2020-12-30T04:05:00Z,00000380,01000600,0000.64,-000.04,-000.23,-001.36,0000.26,-000.03,0000.01,0000.14,0000.18,23.8,00.0,0642.0,30.9
2020-12-30T04:06:00Z,00000380,01000600,0000.18,0000.38,-000.11,-000.11,-000.00,-000.16,-000.08,0000.07,-000.14,23.8,00.0,0642.0,30.9
2020-12-30T04:07:00Z,00000380,01000600,0001.41,0000.33,-000.17,-000.34,-000.22,-000.03,0000.10,-000.07,0000.22,23.8,00.0,0642.0,30.9
2020-12-30T04:08:00Z,00000380,01000600,0000.95,0000.45,-000.38,-000.10,0000.36,0000.10,0000.14,0000.19,0000.03,23.8,00.0,0642.0,30.9
2020-12-30T04:09:00Z,00000380,01000600,-000.89,0000.22,0000.36,0000.33,0000.10,0000.39,0000.01,-000.03,0000.08,23.8,00.0,0642.0,30.9
2020-12-30T04:10:00Z,00000380,01000600,-000.51,0000.03,0000.18,-000.14,0000.34,0000.12,0000.03,-000.08,-000.05,23.8,00.0,0642.0,30.9
2020-12-30T04:11:00Z,00000380,01000600,-000.20,0000.23,0000.06,-000.68,0000.08,0000.28,0000.03,0000.12,-000.02,23.8,00.0,0642.0,30.9
2020-12-30T04:12:00Z,00000380,01000600,0000.18,0000.61,0000.53,0000.26,0000.12,0000.62,0000.05,0000.03,-000.00,23.8,00.0,0642.0,30.9
2020-12-30T04:13:00Z,00000380,01000600,-000.87,0000.08,-000.06,-000.50,-000.29,0000.17,-000.03,-000.07,0000.08,23.8,00.0,0642.0,30.9
2020-12-30T04:14:00Z,00000380,01000600,0000.95,-000.03,0000.05,0000.05,-000.13,0000.19,0000.12,0000.24,0000.05,23.8,00.0,0642.0,30.9
2020-12-30T04:15:00Z,00000380,01000600,0000.46,0000.33,-000.11,-000.05,0000.09,0000.01,-000.07,-000.04,-000.08,23.8,00.0,0642.1,30.9
2020-12-30T04:16:00Z,00000380,01000600,0000.56,0000.27,-000.44,-000.40,-000.10,-000.09,0000.12,-000.00,0000.12,23.8,00.0,0642.1,30.9
2020-12-30T04:17:00Z,00000380,01000600,0000.21,0000.30,-000.34,-000.62,-000.00,-000.18,-000.07,-000.02,0000.06,23.7,00.0,0642.1,30.9
2020-12-30T04:18:00Z,00000380,01000600,0000.98,0000.21,0000.10,0000.37,0000.13,0000.11,0000.13,0000.09,-000.22,23.7,00.0,0642.1,30.9
2020-12-30T04:19:00Z,00000380,01000600,0001.51,0000.36,0000.28,-000.17,0000.08,0000.24,-000.15,0000.01,0000.14,23.7,00.0,0642.1,30.9
2020-12-30T04:20:00Z,00000380,01000600,0000.83,-000.09,-000.01,0001.02,-000.11,0000.04,0000.02,0000.06,0000.10,23.7,00.0,0642.1,30.9
2020-12-30T04:21:00Z,00000380,01000600,-000.05,0000.11,0000.22,0000.15,-000.07,-000.12,0000.05,-000.00,0000.01,23.7,00.0,0642.1,30.9
2020-12-30T04:22:00Z,00000380,01000600,0000.91,0000.47,0000.06,-000.19,0000.26,0000.19,0000.03,-000.14,-000.08,23.7,00.0,0642.1,30.9
2020-12-30T04:23:00Z,00000380,01000600,0000.77,0000.10,-000.30,-000.42,0000.05,0000.01,0000.07,0000.05,-000.10,23.7,00.0,0642.1,30.9
2020-12-30T04:24:00Z,00000380,01000600,0000.36,-000.07,0000.36,-000.15,-000.01,0000.12,-000.01,0000.05,0000.15,23.7,00.0,0642.1,30.9
2020-12-30T04:25:00Z,00000380,01000600,0000.45,0000.22,-000.30,-000.60,0000.07,0000.34,-000.08,0000.00,-000.06,23.7,00.0,0642.1,30.9
2020-12-30T04:26:00Z,00000380,01000600,0000.62,0000.05,-000.22,0000.32,-000.15,0000.42,-000.02,-000.19,-000.07,23.7,00.0,0642.1,30.9
2020-12-30T04:27:00Z,00000380,01000600,0000.97,0000.47,0000.09,0000.50,0000.02,0000.20,0000.00,0000.20,0000.18,23.6,00.0,0642.1,30.9
2020-12-30T04:28:00Z,00000380,01000600,0001.03,0000.49,0000.08,-000.27,0000.23,0000.38,0000.10,0000.08,-000.00,23.6,00.0,0642.1,30.9
2020-12-30T04:29:00Z,00000380,01000600,0000.59,-000.06,0000.03,-000.35,0000.17,-000.17,0000.01,-000.13,-000.06,23.7,00.0,0642.1,30.9
2020-12-30T04:30:00Z,00000380,01000600,0000.58,0000.17,-000.19,0000.62,-000.24,0000.10,0000.06,0000.15,0000.11,23.7,00.0,0642.1,30.9
2020-12-30T04:31:00Z,00000380,01000600,0000.05,0000.17,-000.11,-000.07,-000.04,0000.02,0000.06,0000.00,0000.02,23.7,00.0,0642.1,30.9
2020-12-30T04:32:00Z,00000380,01000600,-000.18,0000.83,-000.10,0000.65,-000.24,0000.33,-000.08,-000.17,-000.13,23.7,00.0,0642.1,30.9
2020-12-30T04:33:00Z,00000380,01000600,0001.08,0000.22,-000.27,0000.76,0000.22,0000.04,-000.00,0000.23,0000.10,23.7,00.0,0642.1,30.9
2020-12-30T04:34:00Z,00000380,01000600,0001.07,0000.55,-000.09,0000.59,-000.42,0000.35,0000.09,-000.02,0000.03,23.7,00.0,0642.1,30.9
2020-12-30T04:35:00Z,00000380,01000600,0000.31,0000.35,-000.19,-000.02,-000.21,0000.32,0000.13,-000.03,-000.10,23.7,00.0,0642.1,30.9
2020-12-30T04:36:00Z,00000380,01000600,0001.06,0000.37,-000.05,0000.07,-000.04,-000.17,-000.07,0000.09,0000.03,23.7,00.0,0642.1,30.9
2020-12-30T04:37:00Z,00000380,01000600,-000.37,0000.40,-000.04,0000.42,0000.25,0000.26,-000.02,-000.01,0000.08,23.7,00.0,0642.1,30.9
2020-12-30T04:38:00Z,00000380,01000600,0000.69,0000.14,0000.55,0000.13,0000.11,0000.24,0000.00,0000.04,0000.11,23.7,00.0,0642.1,30.9
2020-12-30T04:39:00Z,00000380,01000600,-000.49,0000.38,-000.11,0000.36,0000.01,0000.42,0000.02,0000.16,0000.06,23.7,00.0,0642.1,30.9
2020-12-30T04:40:00Z,00000380,01000600,-000.03,-000.25,-000.47,-000.30,0000.03,0000.22,0000.09,-000.12,-000.18,23.7,00.0,0642.1,30.9
2020-12-30T04:41:00Z,00000380,01000600,-001.22,0000.46,0000.19,-000.17,0000.19,0000.40,-000.10,0000.08,0000.10,23.7,00.0,0642.1,30.9
2020-12-30T04:42:00Z,00000380,01000600,-000.05,0000.03,0000.07,-000.33,0000.32,0000.09,0000.19,-000.08,-000.12,23.6,00.0,0642.1,30.9
2020-12-30T04:43:00Z,00000380,01000600,0000.04,0000.41,0000.03,0000.72,0000.13,0000.09,-000.07,0000.12,0000.04,23.7,00.0,0642.1,30.9
2020-12-30T04:44:00Z,00000380,01000600,0000.64,0000.35,-000.71,0000.37,-000.03,-000.53,0000.21,0000.14,0000.19,23.7,00.0,0642.1,30.9
2020-12-30T04:45:00Z,00000380,01000600,0000.79,0000.78,0000.05,0000.84,0000.44,0000.54,-000.04,-000.26,-000.05,23.7,00.0,0642.1,30.9
2020-12-30T04:46:00Z,00000380,01000600,0001.56,0000.57,0000.01,0000.47,-000.10,-000.03,-000.04,0000.14,0000.00,23.7,00.0,0642.1,30.9
2020-12-30T04:47:00Z,00000380,01000600,0000.78,-000.17,-000.09,-000.24,0000.43,-000.03,0000.02,-000.05,-000.02,23.7,00.0,0642.1,30.9
2020-12-30T04:48:00Z,00000380,01000600,0001.06,-000.14,0000.01,-000.27,-000.47,-000.09,-000.01,0000.01,0000.03,23.7,00.0,0642.1,30.9
2020-12-30T04:49:00Z,00000380,01000600,0000.54,0000.20,-000.23,0000.49,0000.61,0000.43,0000.06,0000.03,0000.05,23.7,00.0,0642.1,30.9
2020-12-30T04:50:00Z,00000380,01000600,0000.69,0000.29,0000.43,-000.15,-000.33,0000.11,-000.06,0000.15,0000.02,23.7,00.0,0642.1,30.9
2020-12-30T04:51:00Z,00000380,01000600,0000.66,0000.34,0000.42,0000.57,-000.05,0000.39,0000.16,0000.04,-000.03,23.6,00.0,0642.1,30.9
2020-12-30T04:52:00Z,00000380,01000600,0000.37,0000.29,0000.10,0000.10,-000.12,0000.34,-000.16,-000.17,0000.02,23.6,00.0,0642.1,30.9
2020-12-30T04:53:00Z,00000380,01000600,0001.12,0000.24,0000.15,0000.65,0000.29,0000.23,0000.13,0000.04,0000.00,23.6,00.0,0642.1,30.9
2020-12-30T04:54:00Z,00000380,01000600,0001.00,0000.23,0000.01,-000.25,0000.28,0000.20,-000.05,0000.02,-000.04,23.6,00.0,0642.1,30.9
2020-12-30T04:55:00Z,00000380,01000600,0000.62,0000.04,-000.13,0000.32,0000.14,0000.24,0000.05,0000.09,0000.15,23.6,00.0,0642.1,30.9
2020-12-30T04:56:00Z,00000380,01000600,0000.97,0000.04,-000.01,0000.68,0000.45,-000.10,0000.04,0000.04,-000.06,23.6,00.0,0642.1,30.8
2020-12-30T04:57:00Z,00000380,41000600,,,,,,,,,,23.6,00.0,0642.2,30.8
2020-12-30T04:58:00Z,00000380,61000600,,,,,,,,,,23.7,00.0,0641.2,30.9
2020-12-30T04:59:00Z,00000380,21000600,,,,,,,,,,23.8,00.0,0641.1,30.9
2020-12-30T05:00:00Z,00000380,21000600,,,,,,,,,,23.8,00.0,0641.1,30.9
2020-12-30T05:01:00Z,00000380,21000600,,,,,,,,,,23.9,00.0,0641.1,30.9
2020-12-30T05:02:00Z,00000380,21000600,,,,,,,,,,23.9,00.0,0641.2,30.9
2020-12-30T05:03:00Z,00000380,61000600,,,,,,,,,,23.9,00.0,0641.2,30.9
2020-12-30T05:04:00Z,00000380,41000600,-000.67,0000.22,-000.12,0000.40,0000.29,0000.04,0000.17,0000.06,-000.11,23.7,00.0,0642.1,30.9
2020-12-30T05:05:00Z,00000380,01000600,0000.00,0000.60,0000.17,-000.61,0000.11,0000.39,-000.03,0000.04,0000.15,23.7,00.0,0642.1,30.9
2020-12-30T05:06:00Z,00000380,01000600,0000.28,0000.14,0000.95,-000.34,0000.19,-000.22,0000.03,-000.03,-000.06,23.6,00.0,0642.1,30.9
2020-12-30T05:07:00Z,00000380,01000600,0001.36,-000.25,-000.01,-000.41,-000.04,-000.06,-000.05,0000.06,-000.02,23.6,00.0,0642.1,30.9
2020-12-30T05:08:00Z,00000380,01000600,-000.30,0000.01,0000.15,-000.07,0000.09,-000.26,0000.15,0000.04,0000.07,23.6,00.0,0642.1,30.9
2020-12-30T05:09:00Z,00000380,01000600,0002.02,0000.54,0000.07,0000.12,0000.29,-000.35,0000.05,0000.18,0000.03,23.6,00.0,0642.1,30.8
2020-12-30T05:10:00Z,00000380,01000600,0000.47,0000.08,0000.29,-000.07,0000.32,-000.22,0000.05,-000.17,0000.10,23.6,00.0,0642.1,30.8
2020-12-30T05:11:00Z,00000380,01000600,0000.19,0000.10,0000.56,0000.70,0000.49,0000.28,-000.08,0000.08,-000.16,23.5,00.0,0642.1,30.8
2020-12-30T05:12:00Z,00000380,01000600,-000.60,-000.57,0000.07,0000.39,0000.45,0000.13,0000.09,0000.07,0000.09,23.5,00.0,0642.1,30.8
2020-12-30T05:13:00Z,00000380,01000600,0000.29,0000.08,-000.38,0000.53,0000.09,-000.50,0000.08,0000.07,0000.05,23.5,00.0,0642.1,30.8
2020-12-30T05:14:00Z,00000380,01000600,0000.39,0000.59,-000.10,0000.23,0000.32,-000.23,-000.00,-000.01,0000.00,23.6,00.0,0642.1,30.9
2020-12-30T05:15:00Z,00000380,01000600,-000.25,0000.48,0000.16,0000.10,0000.05,-000.09,0000.03,-000.14,-000.08,23.6,00.0,0642.1,30.9
2020-12-30T05:16:00Z,00000380,01000600,0000.38,0000.61,0000.03,-000.99,0000.32,0000.31,-000.08,-000.01,-000.09,23.6,00.0,0642.1,30.9
2020-12-30T05:17:00Z,00000380,01000600,0000.56,-000.25,-000.14,0000.06,0000.48,-000.35,0000.06,0000.04,0000.23,23.6,00.0,0642.1,30.9
2020-12-30T05:18:00Z,00000380,01000600,0000.03,0000.57,0000.33,-000.35,-000.18,0000.21,0000.09,0000.14,-000.08,23.6,00.0,0642.1,30.9
2020-12-30T05:19:00Z,00000380,01000600,0000.13,0000.01,0000.36,0000.04,0000.16,-000.03,0000.08,0000.07,0000.04,23.6,00.0,0642.1,30.9
2020-12-30T05:20:00Z,00000380,01000600,-000.58,0000.43,0000.18,-000.47,0000.16,0000.02,0000.02,-000.03,-000.01,23.6,00.0,0642.0,30.9
2020-12-30T05:21:00Z,00000380,01000600,0001.15,0000.41,0000.24,-000.06,-000.13,0000.17,0000.05,-000.01,0000.12,23.5,00.0,0642.1,30.8
2020-12-30T05:22:00Z,00000380,01000600,0000.98,0000.09,0000.65,-000.05,0000.08,0000.21,0000.05,0000.14,0000.03,23.5,00.0,0642.1,30.8
2020-12-30T05:23:00Z,00000380,01000600,-000.18,0000.95,0000.51,-000.83,0000.12,-000.45,-000.04,0000.01,-000.07,23.5,00.0,0642.0,30.8
2020-12-30T05:24:00Z,00000380,01000600,0000.50,0000.23,0000.30,0000.15,0000.06,-000.08,-000.02,-000.06,-000.00,23.5,00.0,0642.0,30.8
2020-12-30T05:25:00Z,00000380,01000600,-000.88,-000.02,0000.12,-000.73,0000.48,-000.07,0000.08,0000.08,0000.10,23.5,00.0,0642.1,30.8
2020-12-30T05:26:00Z,00000380,01000600,-000.37,0000.52,0000.09,-000.49,0000.02,0000.05,0000.09,0000.05,-000.02,23.5,00.0,0642.1,30.8
2020-12-30T05:27:00Z,00000380,01000600,0000.11,0000.62,0000.45,-000.25,0000.01,0000.32,0000.03,0000.11,0000.04,23.5,00.0,0642.1,30.8
2020-12-30T05:28:00Z,00000380,01000600,0000.33,0000.36,0000.82,-000.61,0000.37,-000.08,0000.17,-000.03,0000.05,23.5,00.0,0642.1,30.8
2020-12-30T05:29:00Z,00000380,01000600,0000.20,0000.37,0000.39,-000.16,0000.15,-000.09,-000.04,0000.00,0000.02,23.5,00.0,0642.1,30.9
2020-12-30T05:30:00Z,00000380,01000600,0000.74,0000.07,0000.28,-000.07,0000.11,0000.10,-000.08,0000.01,0000.08,23.6,00.0,0642.1,30.9
2020-12-30T05:31:00Z,00000380,01000600,0000.19,0000.52,0000.40,-001.18,0000.09,-000.17,0000.08,0000.05,-000.04,23.6,00.0,0642.0,30.9
2020-12-30T05:32:00Z,00000380,01000600,0000.19,-000.26,0000.17,-000.06,0000.51,0000.15,0000.03,0000.01,-000.09,23.6,00.0,0642.0,30.9
2020-12-30T05:33:00Z,00000380,01000600,-000.99,0000.19,-000.07,-000.28,0000.25,0000.04,0000.05,0000.02,0000.18,23.6,00.0,0642.0,30.9
2020-12-30T05:34:00Z,00000380,01000600,0000.82,-000.01,0000.24,-000.02,0000.09,-000.34,0000.06,0000.03,-000.06,23.6,00.0,0642.0,30.9
2020-12-30T05:35:00Z,00000380,01000600,0000.01,0000.64,0000.49,-000.65,0000.31,0000.36,-000.00,-000.04,-000.05,23.5,00.0,0642.0,30.9
2020-12-30T05:36:00Z,00000380,01000600,0000.50,0000.54,0000.53,-000.47,0000.14,-000.11,0000.02,0000.01,0000.09,23.6,00.0,0642.0,30.9
2020-12-30T05:37:00Z,00000380,01000600,0001.27,-000.02,0000.26,-000.55,-000.06,0000.12,0000.05,0000.30,0000.08,23.6,00.0,0642.0,30.9
2020-12-30T05:38:00Z,00000380,01000600,-000.50,0000.06,-000.01,-000.40,0000.40,-000.24,0000.05,-000.07,-000.10,23.6,00.0,0642.0,30.9
2020-12-30T05:39:00Z,00000380,01000600,-000.02,-000.32,-000.08,-000.47,-000.01,0000.20,0000.06,-000.10,0000.17,23.6,00.0,0642.0,30.9
2020-12-30T05:40:00Z,00000380,01000600,-000.35,0000.76,-000.19,-001.28,-000.24,-000.08,-000.07,0000.14,-000.06,23.5,00.0,0642.1,30.9
2020-12-30T05:41:00Z,00000380,01000600,0000.47,0000.27,0000.01,0000.81,0000.24,-000.39,0000.19,0000.10,0000.04,23.6,00.0,0642.1,30.9
2020-12-30T05:42:00Z,00000380,01000600,0000.76,0000.07,0000.33,-000.07,-000.20,0000.16,0000.09,-000.13,0000.06,23.5,00.0,0642.1,30.9
2020-12-30T05:43:00Z,00000380,01000600,-000.61,0000.53,0000.18,-000.09,0000.05,-000.25,-000.04,0000.12,0000.05,23.5,00.0,0642.2,30.9
2020-12-30T05:44:00Z,00000380,01000600,0000.43,0000.18,0000.25,-000.20,0000.36,0000.40,-000.06,0000.03,-000.13,23.5,00.0,0642.3,30.9
2020-12-30T05:45:00Z,00000380,01000600,-000.24,0000.31,0000.06,-000.10,-000.28,-000.11,-000.01,-000.06,0000.02,23.6,00.0,0642.3,30.9
2020-12-30T05:46:00Z,00000380,01000600,0000.54,0000.13,0000.24,0000.38,0000.14,0000.23,-000.03,-000.20,0000.04,23.6,00.0,0642.3,30.9
2020-12-30T05:47:00Z,00000380,01000600,0000.28,0000.32,0001.17,0000.62,0000.33,0000.38,0000.02,-000.03,-000.17,23.6,00.0,0642.3,30.9
2020-12-30T05:48:00Z,00000380,01000600,-000.09,0000.15,0000.34,0000.12,-000.03,0000.14,-000.11,0000.07,0000.08,23.6,00.0,0642.4,30.9
2020-12-30T05:49:00Z,00000380,01000600,0000.44,0000.53,0000.31,0000.29,0000.06,-000.54,0000.10,-000.09,-000.15,23.6,00.0,0642.4,30.9
2020-12-30T05:50:00Z,00000380,01000600,0001.10,0000.33,0000.47,-001.05,0000.05,0000.05,-000.04,0000.04,0000.01,23.6,00.0,0642.4,30.9
2020-12-30T05:51:00Z,00000380,01000600,-000.47,0000.55,-000.07,-000.20,0000.03,-000.46,0000.00,0000.08,-000.10,23.6,00.0,0642.4,30.9
2020-12-30T05:52:00Z,00000380,01000600,-000.45,0000.60,0000.40,0000.33,-000.05,-000.24,-000.02,-000.03,0000.03,23.6,00.0,0642.4,30.9
2020-12-30T05:53:00Z,00000380,01000600,0000.25,0000.00,0000.43,-000.21,0000.72,-000.41,-000.01,-000.12,-000.09,23.6,00.0,0642.4,30.9
2020-12-30T05:54:00Z,00000380,01000600,0000.03,0000.05,0000.69,0000.47,0000.33,-000.00,-000.04,0000.12,0000.09,23.6,00.0,0642.4,30.9
2020-12-30T05:55:00Z,00000380,01000600,0001.83,0000.55,0000.38,0000.68,-000.25,0000.50,0000.05,-000.00,-000.13,23.6,00.0,0642.4,30.9
2020-12-30T05:56:00Z,00000380,01000600,-000.34,-000.41,0000.05,0000.05,0000.03,0000.07,0000.05,-000.04,0000.08,23.6,00.0,0642.3,30.9
2020-12-30T05:57:00Z,00000380,41000600,,,,,,,,,,23.6,00.0,0642.4,30.9
2020-12-30T05:58:00Z,00000380,61000600,,,,,,,,,,23.7,00.0,0641.4,30.9
2020-12-30T05:59:00Z,00000380,21000600,,,,,,,,,,23.8,00.0,0641.3,30.9
2020-12-30T06:00:00Z,00000380,21000600,,,,,,,,,,23.8,00.0,0641.3,30.9
2020-12-30T06:01:00Z,00000380,21000600,,,,,,,,,,23.9,00.0,0641.3,30.9
2020-12-30T06:02:00Z,00000380,21000600,,,,,,,,,,23.9,00.0,0641.3,30.9
2020-12-30T06:03:00Z,00000380,61000600,,,,,,,,,,23.9,00.0,0641.3,30.9
2020-12-30T06:04:00Z,00000380,41000600,0000.39,0000.46,0000.02,-000.12,0000.26,-000.13,0000.14,0000.16,0000.23,23.7,00.0,0642.1,30.9
2020-12-30T06:05:00Z,00000380,01000600,0000.40,-000.10,-000.03,-000.10,0000.10,-000.06,0000.05,0000.06,0000.04,23.6,00.0,0642.1,30.9
2020-12-30T06:06:00Z,00000380,01000600,0000.71,0000.18,0000.00,0000.48,0000.21,-000.22,0000.01,-000.12,-000.03,23.6,00.0,0642.1,30.9
2020-12-30T06:07:00Z,00000380,01000600,0000.16,0000.35,0000.10,-000.12,-000.09,0000.10,0000.12,0000.19,0000.17,23.6,00.0,0642.1,30.9
2020-12-30T06:08:00Z,00000380,01000600,0001.46,0000.61,0000.06,-000.16,0000.09,0000.37,0000.28,0000.16,0000.14,23.6,00.0,0642.2,30.9
2020-12-30T06:09:00Z,00000380,01000600,0000.46,0000.27,0000.07,0000.94,0000.16,0000.05,-000.08,0000.13,0000.09,23.6,00.0,0642.2,30.9
2020-12-30T06:10:00Z,00000380,01000600,0000.73,0000.07,0000.02,0000.41,0000.18,-000.04,0000.07,-000.04,0000.10,23.6,00.0,0642.2,30.9